Abilene, TX

9:31 AM CST on January 17, 2017 (GMT -0600)
Abilene Regional

Weather History for KABI - September, 2011

Change the Weather History Date:

Saturday, September 10, 2011

  Actual Average Record
Temperature  
Mean Temperature 75 °F 77 °F  
Max Temperature 91 °F 89 °F 103 °F (2014)
Min Temperature 58 °F 66 °F 53 °F (1968)
Degree Days  
Heating Degree Days 0 0  
Month to date heating degree days 0 0  
Since 1 July heating degree days 0 0  
Cooling Degree Days 10 12  
Month to date cooling degree days 116 138  
Year to date cooling degree days 3081 2083  
Growing Degree Days 26 (Base 50)    
Moisture  
Dew Point 37 °F    
Average Humidity 33    
Maximum Humidity 51    
Minimum Humidity 15    
Precipitation  
Precipitation 0.00 in 0.08 in 1.96 in (1969)
Month to date precipitation 0.00 0.80  
Year to date precipitation 10.39 17.76  
Sea Level Pressure  
Sea Level Pressure 30.02 in    
Wind  
Wind Speed 3 mph (NNE)    
Max Wind Speed 26 mph    
Max Gust Speed 29 mph    
Visibility 10 miles    
Events      
T = Trace of Precipitation, MM = Missing Value Source: NWS Daily Summary

Daily Weather History Graph

Daily Weather History Graph

Search for Another Location

Airport or City:

Trip Planner

Search our weather history database for the weather conditions in past years. The results will help you decide how hot, cold, wet, or windy it might be!

Date:

Astronomy

Sep. 10, 2011 Rise Set
Actual Time 7:19 AM CDT 7:51 PM CDT
Civil Twilight 6:54 AM CDT 8:16 PM CDT
Nautical Twilight 6:25 AM CDT 8:45 PM CDT
Astronomical Twilight 5:55 AM CDT 9:14 PM CDT
Moon 6:46 PM CDT (9/10) 5:44 AM CDT (9/10)
Length of Visible Light 13h 21m
Length of Day
12h 32m
Waxing Gibbous, 97% of the Moon is Illuminated
Sep 10
Waxing Gibbous
Sep 12
Full
Sep 20
Last Quarter
Sep 27
New
Oct 3
First Quarter

Hourly Weather History & Observations

Time (CDT) Temp. Dew Point Humidity Pressure Visibility Wind Dir Wind Speed Gust Speed Precip Events Conditions
12:52 AM 69.1 °F 30.9 °F 24% 30.00 in 10.0 mi East 5.8 mph - N/A   Clear
1:52 AM 66.9 °F 33.1 °F 28% 30.01 in 10.0 mi Calm Calm - N/A   Clear
2:52 AM 66.9 °F 34.0 °F 30% 30.00 in 10.0 mi Calm Calm - N/A   Clear
3:52 AM 64.9 °F 34.0 °F 32% 30.00 in 10.0 mi Calm Calm - N/A   Clear
4:52 AM 61.0 °F 37.0 °F 41% 30.00 in 10.0 mi Calm Calm - N/A   Clear
5:52 AM 60.1 °F 42.1 °F 51% 30.02 in 10.0 mi West 3.5 mph - N/A   Scattered Clouds
6:52 AM 60.1 °F 42.1 °F 51% 30.05 in 10.0 mi SSW 6.9 mph - N/A   Overcast
7:52 AM 64.0 °F 41.0 °F 43% 30.06 in 10.0 mi Calm Calm - N/A   Scattered Clouds
8:52 AM 70.0 °F 39.0 °F 32% 30.07 in 10.0 mi Calm Calm - N/A   Clear
9:52 AM 78.1 °F 37.0 °F 23% 30.07 in 10.0 mi ENE 3.5 mph - N/A   Clear
10:52 AM 82.9 °F 33.1 °F 17% 30.08 in 10.0 mi Variable 3.5 mph - N/A   Clear
11:52 AM 84.9 °F 33.1 °F 16% 30.08 in 10.0 mi Calm Calm - N/A   Clear
12:52 PM 84.9 °F 34.0 °F 16% 30.06 in 10.0 mi Variable 3.5 mph - N/A   Clear
1:52 PM 87.1 °F 34.0 °F 15% 30.04 in 10.0 mi SSE 3.5 mph - N/A   Partly Cloudy
2:52 PM 88.0 °F 36.0 °F 16% 30.01 in 10.0 mi NW 6.9 mph - N/A   Clear
3:52 PM 91.0 °F 37.9 °F 15% 29.99 in 10.0 mi NW 5.8 mph - N/A   Clear
4:52 PM 90.0 °F 37.9 °F 16% 29.99 in 10.0 mi NW 6.9 mph - N/A   Scattered Clouds
5:52 PM 89.1 °F 37.9 °F 16% 29.98 in 10.0 mi Variable 4.6 mph - N/A   Clear
6:52 PM 88.0 °F 37.9 °F 17% 29.97 in 10.0 mi NNE 3.5 mph - N/A   Clear
7:52 PM 84.9 °F 39.0 °F 20% 29.98 in 10.0 mi NE 3.5 mph - N/A   Clear
8:52 PM 79.0 °F 39.9 °F 25% 29.99 in 10.0 mi SE 4.6 mph - N/A   Clear
9:52 PM 78.1 °F 43.0 °F 29% 30.01 in 10.0 mi Calm Calm - N/A   Clear
10:52 PM 81.0 °F 41.0 °F 24% 30.01 in 10.0 mi Calm Calm - N/A   Clear
11:52 PM 79.0 °F 41.0 °F 26% 30.02 in 10.0 mi Calm Calm - N/A   Clear